,,PressureMeas_1m,,PRMeasQMR101_1,,RHStat155_1m_1,,SRMeasQMS101R_1m,,TAStat155_1m_1,,GenWind_1,,GenWind_1,
2019-03-09, 07:00:06,VALID,918.272,VALID,0.0,VALID,99.362,VALID,38.673,VALID,20.058,VALID,45.0,VALID,0.0,
2019-03-09, 07:01:06,VALID,918.274,VALID,0.0,VALID,99.322,VALID,41.29,VALID,20.039,VALID,45.0,VALID,0.0,
2019-03-09, 07:02:06,VALID,918.278,VALID,0.0,VALID,99.345,VALID,45.381,VALID,20.056,INVALID,360.0,VALID,0.0,
2019-03-09, 07:03:06,VALID,918.278,VALID,0.0,VALID,99.329,VALID,47.685,VALID,20.054,INVALID,360.0,VALID,0.0,
2019-03-09, 07:04:06,VALID,918.288,VALID,0.0,VALID,99.341,VALID,51.379,VALID,20.062,VALID,45.0,VALID,0.0,
2019-03-09, 07:05:06,VALID,918.321,VALID,0.0,VALID,99.34,VALID,55.067,VALID,20.076,INVALID,360.0,VALID,0.0,
2019-03-09, 07:06:06,VALID,918.341,VALID,0.0,VALID,99.324,VALID,58.394,VALID,20.062,VALID,45.0,VALID,0.0,
2019-03-09, 07:07:06,VALID,918.365,VALID,0.0,VALID,99.333,VALID,63.706,VALID,20.067,INVALID,360.0,VALID,0.0,
2019-03-09, 07:08:06,VALID,918.37,VALID,0.0,VALID,99.317,VALID,68.071,VALID,20.068,INVALID,360.0,VALID,0.0,
2019-03-09, 07:09:06,VALID,918.398,VALID,0.0,VALID,99.315,VALID,73.082,VALID,20.085,VALID,45.0,VALID,0.0,
2019-03-09, 07:10:06,VALID,918.419,VALID,0.0,VALID,99.329,VALID,78.151,VALID,20.098,INVALID,360.0,VALID,0.0,
2019-03-09, 07:11:06,VALID,918.421,VALID,0.0,VALID,99.315,VALID,77.483,VALID,20.119,INVALID,360.0,VALID,0.0,
2019-03-09, 07:12:06,VALID,918.454,VALID,0.0,VALID,99.303,VALID,85.323,VALID,20.127,INVALID,360.0,VALID,0.0,
2019-03-09, 07:13:06,VALID,918.442,VALID,0.0,VALID,99.298,VALID,88.422,VALID,20.119,INVALID,360.0,VALID,0.0,
2019-03-09, 07:14:06,VALID,918.453,VALID,0.0,VALID,99.287,VALID,93.212,VALID,20.117,INVALID,360.0,VALID,0.0,
2019-03-09, 07:15:06,VALID,918.484,VALID,0.0,VALID,99.288,VALID,96.549,VALID,20.127,VALID,45.0,VALID,0.0,
2019-03-09, 07:16:06,VALID,918.503,VALID,0.0,VALID,99.29,VALID,100.482,VALID,20.172,INVALID,360.0,VALID,0.0,
2019-03-09, 07:17:06,VALID,918.527,VALID,0.0,VALID,99.289,VALID,105.085,VALID,20.198,VALID,45.0,VALID,0.0,
2019-03-09, 07:18:06,VALID,918.543,VALID,0.0,VALID,99.267,VALID,108.013,VALID,20.224,VALID,45.0,VALID,0.0,
2019-03-09, 07:19:06,VALID,918.56,VALID,0.0,VALID,99.275,VALID,111.347,VALID,20.275,INVALID,360.0,VALID,0.0,
2019-03-09, 07:20:06,VALID,918.565,VALID,0.0,VALID,99.255,VALID,114.884,VALID,20.286,INVALID,360.0,VALID,0.0,
2019-03-09, 07:21:06,VALID,918.56,VALID,0.0,VALID,99.224,VALID,117.832,VALID,20.295,VALID,45.0,VALID,0.0,
2019-03-09, 07:22:06,VALID,918.575,VALID,0.0,VALID,99.228,VALID,121.467,VALID,20.322,VALID,45.0,VALID,0.0,
2019-03-09, 07:23:06,VALID,918.606,VALID,0.0,VALID,99.185,VALID,123.278,VALID,20.327,VALID,45.0,VALID,0.0,
2019-03-09, 07:24:06,VALID,918.583,VALID,0.0,VALID,99.159,VALID,125.155,VALID,20.334,VALID,45.0,VALID,0.0,
2019-03-09, 07:25:06,VALID,918.601,VALID,0.0,VALID,99.144,VALID,125.412,VALID,20.343,INVALID,360.0,VALID,0.0,
2019-03-09, 07:26:06,VALID,918.621,VALID,0.0,VALID,99.119,VALID,125.952,VALID,20.339,VALID,45.0,VALID,0.0,
2019-03-09, 07:27:06,VALID,918.63,VALID,0.0,VALID,99.047,VALID,128.114,VALID,20.34,INVALID,360.0,VALID,0.0,
2019-03-09, 07:28:06,VALID,918.657,VALID,0.0,VALID,98.992,VALID,131.911,VALID,20.34,VALID,45.0,VALID,0.0,
2019-03-09, 07:29:06,VALID,918.672,VALID,0.0,VALID,98.936,VALID,137.303,VALID,20.354,INVALID,360.0,VALID,0.0,
2019-03-09, 07:30:06,VALID,918.698,VALID,0.0,VALID,98.822,VALID,141.745,VALID,20.329,VALID,45.0,VALID,0.0,
2019-03-09, 07:31:06,VALID,918.74,VALID,0.0,VALID,98.632,VALID,145.566,VALID,20.318,VALID,45.0,VALID,0.0,
2019-03-09, 07:32:06,VALID,918.785,VALID,0.0,VALID,98.412,VALID,146.953,VALID,20.334,INVALID,360.0,VALID,0.0,
2019-03-09, 07:33:06,VALID,918.836,VALID,0.0,VALID,98.222,VALID,148.06,VALID,20.346,INVALID,360.0,VALID,0.0,
2019-03-09, 07:34:06,VALID,918.868,VALID,0.0,VALID,98.1,VALID,150.327,VALID,20.413,INVALID,360.0,VALID,0.0,
2019-03-09, 07:35:06,VALID,918.856,VALID,0.0,VALID,97.917,VALID,152.768,VALID,20.45,INVALID,360.0,VALID,0.0,
2019-03-09, 07:36:06,VALID,918.879,VALID,0.0,VALID,97.704,VALID,157.341,VALID,20.506,INVALID,360.0,VALID,0.0,
2019-03-09, 07:37:06,VALID,918.829,VALID,0.0,VALID,97.308,VALID,164.581,VALID,20.546,INVALID,360.0,VALID,0.0,
2019-03-09, 07:38:06,VALID,918.849,VALID,0.0,VALID,96.88,VALID,177.29,VALID,20.553,INVALID,360.0,VALID,0.0,
2019-03-09, 07:39:06,VALID,918.832,VALID,0.0,VALID,96.598,VALID,189.439,VALID,20.586,INVALID,360.0,VALID,0.0,
2019-03-09, 07:40:06,VALID,918.791,VALID,0.0,VALID,96.377,VALID,194.576,VALID,20.603,INVALID,360.0,VALID,0.0,
2019-03-09, 07:41:06,VALID,918.813,VALID,0.0,VALID,96.213,VALID,197.122,VALID,20.621,INVALID,360.0,VALID,0.0,
2019-03-09, 07:42:06,VALID,918.809,VALID,0.0,VALID,96.423,VALID,200.522,VALID,20.751,INVALID,360.0,VALID,0.0,
2019-03-09, 07:43:06,VALID,918.818,VALID,0.0,VALID,96.471,VALID,198.387,VALID,20.831,INVALID,360.0,VALID,0.0,
2019-03-09, 07:44:06,VALID,918.869,VALID,0.0,VALID,95.967,VALID,197.346,VALID,20.831,INVALID,360.0,VALID,0.0,
2019-03-09, 07:45:06,VALID,918.887,VALID,0.0,VALID,96.046,VALID,200.065,VALID,20.933,VALID,45.0,VALID,0.0,
2019-03-09, 07:46:06,VALID,918.911,VALID,0.0,VALID,95.725,VALID,204.235,VALID,21.032,INVALID,360.0,VALID,0.0,
2019-03-09, 07:47:06,VALID,918.968,VALID,0.0,VALID,95.272,VALID,197.913,VALID,21.134,VALID,45.0,VALID,0.0,
2019-03-09, 07:48:06,VALID,918.981,VALID,0.0,VALID,94.731,VALID,202.197,VALID,21.163,INVALID,360.0,VALID,0.0,
2019-03-09, 07:49:06,VALID,919.002,VALID,0.0,VALID,94.986,VALID,212.217,VALID,21.258,INVALID,360.0,VALID,0.0,
2019-03-09, 07:50:06,VALID,919.021,VALID,0.0,VALID,94.754,VALID,220.221,VALID,21.332,VALID,45.0,VALID,0.0,
2019-03-09, 07:51:06,VALID,919.028,VALID,0.0,VALID,94.337,VALID,230.091,VALID,21.391,INVALID,360.0,VALID,0.0,
2019-03-09, 07:52:06,VALID,919.047,VALID,0.0,VALID,93.921,VALID,234.833,VALID,21.468,INVALID,360.0,VALID,0.0,
2019-03-09, 07:53:06,VALID,919.05,VALID,0.0,VALID,93.685,VALID,228.873,VALID,21.543,VALID,45.0,VALID,0.0,
2019-03-09, 07:54:06,VALID,919.059,VALID,0.0,VALID,93.82,VALID,211.223,VALID,21.611,INVALID,360.0,VALID,0.0,
2019-03-09, 07:55:06,VALID,919.062,VALID,0.0,VALID,93.469,VALID,213.714,VALID,21.65,INVALID,360.0,VALID,0.0,
2019-03-09, 07:56:06,VALID,919.072,VALID,0.0,VALID,93.444,VALID,230.24,VALID,21.701,INVALID,360.0,VALID,0.0,
2019-03-09, 07:57:06,VALID,919.066,VALID,0.0,VALID,93.164,VALID,240.943,VALID,21.767,INVALID,360.0,VALID,0.0,
2019-03-09, 07:58:06,VALID,919.079,VALID,0.0,VALID,93.336,VALID,245.586,VALID,21.843,VALID,46.0,VALID,0.0,
2019-03-09, 07:59:06,VALID,919.098,VALID,0.0,VALID,92.966,VALID,256.006,VALID,21.851,VALID,45.0,VALID,0.0,
2019-03-09, 08:00:06,VALID,919.095,VALID,0.0,VALID,92.843,VALID,262.115,VALID,21.878,INVALID,360.0,VALID,0.0,
2019-03-09, 08:01:06,VALID,919.113,VALID,0.0,VALID,92.558,VALID,259.682,VALID,21.947,INVALID,360.0,VALID,0.0,
2019-03-09, 08:02:06,VALID,919.123,VALID,0.0,VALID,92.807,VALID,233.873,VALID,21.969,INVALID,360.0,VALID,0.0,
2019-03-09, 08:03:06,VALID,919.114,VALID,0.0,VALID,93.015,VALID,179.78,VALID,21.97,INVALID,360.0,VALID,0.0,
2019-03-09, 08:04:06,VALID,919.117,VALID,0.0,VALID,93.129,VALID,226.9,VALID,21.987,INVALID,360.0,VALID,0.0,
2019-03-09, 08:05:06,VALID,919.129,VALID,0.0,VALID,92.264,VALID,261.496,VALID,21.947,VALID,45.0,VALID,0.0,
2019-03-09, 08:06:06,VALID,919.12,VALID,0.0,VALID,92.605,VALID,275.312,VALID,21.922,VALID,45.0,VALID,0.0,
2019-03-09, 08:07:06,VALID,919.151,VALID,0.0,VALID,92.59,VALID,286.403,VALID,21.907,INVALID,360.0,VALID,0.0,
2019-03-09, 08:08:06,VALID,919.141,VALID,0.0,VALID,93.653,VALID,296.927,VALID,22.049,INVALID,360.0,VALID,0.0,
2019-03-09, 08:09:06,VALID,919.16,VALID,0.0,VALID,93.403,VALID,304.073,VALID,22.17,INVALID,360.0,VALID,0.0,
2019-03-09, 08:10:06,VALID,919.172,VALID,0.0,VALID,91.245,VALID,299.807,VALID,22.178,INVALID,360.0,VALID,0.0,
2019-03-09, 08:11:06,VALID,919.181,VALID,0.0,VALID,90.849,VALID,293.401,VALID,22.235,INVALID,360.0,VALID,0.0,
2019-03-09, 08:12:06,VALID,919.186,VALID,0.0,VALID,91.98,VALID,313.645,VALID,22.415,INVALID,360.0,VALID,0.0,
2019-03-09, 08:13:06,VALID,919.185,VALID,0.0,VALID,90.259,VALID,321.803,VALID,22.461,INVALID,360.0,VALID,0.0,
2019-03-09, 08:14:06,VALID,919.208,VALID,0.0,VALID,90.185,VALID,318.64,VALID,22.519,INVALID,360.0,VALID,0.0,
2019-03-09, 08:15:06,VALID,919.217,VALID,0.0,VALID,90.015,VALID,331.027,VALID,22.587,INVALID,360.0,VALID,0.0,
2019-03-09, 08:16:06,VALID,919.218,VALID,0.0,VALID,89.647,VALID,302.28,VALID,22.632,INVALID,360.0,VALID,0.0,
2019-03-09, 08:17:06,VALID,919.234,VALID,0.0,VALID,89.809,VALID,283.909,VALID,22.692,INVALID,360.0,VALID,0.0,
2019-03-09, 08:18:06,VALID,919.242,VALID,0.0,VALID,88.364,VALID,265.315,VALID,22.738,INVALID,360.0,VALID,0.0,
2019-03-09, 08:19:06,VALID,919.255,VALID,0.0,VALID,88.651,VALID,291.922,VALID,22.702,VALID,45.0,VALID,0.0,
2019-03-09, 08:20:06,VALID,919.269,VALID,0.0,VALID,89.114,VALID,314.056,VALID,22.713,INVALID,360.0,VALID,0.0,
2019-03-09, 08:21:06,VALID,919.275,VALID,0.0,VALID,88.301,VALID,318.029,VALID,22.726,INVALID,360.0,VALID,0.0,
2019-03-09, 08:22:06,VALID,919.302,VALID,0.0,VALID,89.306,VALID,301.929,VALID,22.827,INVALID,360.0,VALID,0.0,
2019-03-09, 08:23:06,VALID,919.32,VALID,0.0,VALID,88.221,VALID,287.314,VALID,22.924,VALID,44.0,VALID,0.0,
2019-03-09, 08:24:06,VALID,919.345,VALID,0.0,VALID,87.895,VALID,272.612,VALID,22.882,VALID,44.0,VALID,0.0,
2019-03-09, 08:25:06,VALID,919.356,VALID,0.0,VALID,88.248,VALID,235.746,VALID,22.866,INVALID,360.0,VALID,0.0,
2019-03-09, 08:26:06,VALID,919.378,VALID,0.0,VALID,87.745,VALID,217.984,VALID,22.937,INVALID,360.0,VALID,0.0,
2019-03-09, 08:27:06,VALID,919.397,VALID,0.0,VALID,87.726,VALID,233.216,VALID,22.991,INVALID,360.0,VALID,0.0,
2019-03-09, 08:28:06,VALID,919.391,VALID,0.0,VALID,87.821,VALID,259.653,VALID,23.114,INVALID,360.0,VALID,0.0,
2019-03-09, 08:29:06,VALID,919.4,VALID,0.0,VALID,87.489,VALID,309.823,VALID,23.235,INVALID,360.0,VALID,0.0,
2019-03-09, 08:30:06,VALID,919.418,VALID,0.0,VALID,86.389,VALID,353.076,VALID,23.393,INVALID,360.0,VALID,0.0,
2019-03-09, 08:31:06,VALID,919.423,VALID,0.0,VALID,86.236,VALID,375.91,VALID,23.508,INVALID,360.0,VALID,0.0,
2019-03-09, 08:32:06,VALID,919.435,VALID,0.0,VALID,86.157,VALID,395.115,VALID,23.548,INVALID,360.0,VALID,0.0,
2019-03-09, 08:33:06,VALID,919.437,VALID,0.0,VALID,85.053,VALID,400.8,VALID,23.61,INVALID,360.0,VALID,0.0,
2019-03-09, 08:34:06,VALID,919.443,VALID,0.0,VALID,85.3,VALID,419.116,VALID,23.574,INVALID,360.0,VALID,0.0,
2019-03-09, 08:35:06,VALID,919.479,VALID,0.0,VALID,84.5,VALID,411.454,VALID,23.561,INVALID,360.0,VALID,0.0,
2019-03-09, 08:36:06,VALID,919.487,VALID,0.0,VALID,85.196,VALID,399.037,VALID,23.637,INVALID,360.0,VALID,0.0,
2019-03-09, 08:37:06,VALID,919.529,VALID,0.0,VALID,85.111,VALID,438.601,VALID,23.813,INVALID,360.0,VALID,0.0,
2019-03-09, 08:38:06,VALID,919.543,VALID,0.0,VALID,83.511,VALID,436.794,VALID,24.042,INVALID,360.0,VALID,0.0,
2019-03-09, 08:39:06,VALID,919.57,VALID,0.0,VALID,81.17,VALID,368.439,VALID,24.196,INVALID,360.0,VALID,0.0,
2019-03-09, 08:40:06,VALID,919.579,VALID,0.0,VALID,80.659,VALID,315.358,VALID,24.197,INVALID,360.0,VALID,0.0,
2019-03-09, 08:41:06,VALID,919.566,VALID,0.0,VALID,80.538,VALID,308.882,VALID,24.278,INVALID,360.0,VALID,0.0,
2019-03-09, 08:42:06,VALID,919.56,VALID,0.0,VALID,81.305,VALID,296.499,VALID,24.237,INVALID,360.0,VALID,0.0,
2019-03-09, 08:43:06,VALID,919.542,VALID,0.0,VALID,81.058,VALID,301.175,VALID,24.176,INVALID,360.0,VALID,0.0,
2019-03-09, 08:44:06,VALID,919.523,VALID,0.0,VALID,79.628,VALID,320.244,VALID,24.13,INVALID,360.0,VALID,0.0,
2019-03-09, 08:45:06,VALID,919.526,VALID,0.0,VALID,80.907,VALID,305.778,VALID,24.072,INVALID,360.0,VALID,0.0,
2019-03-09, 08:46:06,VALID,919.528,VALID,0.0,VALID,81.506,VALID,268.431,VALID,24.131,INVALID,360.0,VALID,0.0,
2019-03-09, 08:47:06,VALID,919.532,VALID,0.0,VALID,81.178,VALID,246.384,VALID,24.17,INVALID,360.0,VALID,0.0,
2019-03-09, 08:48:06,VALID,919.544,VALID,0.0,VALID,79.643,VALID,255.522,VALID,24.149,INVALID,360.0,VALID,0.0,
2019-03-09, 08:49:06,VALID,919.561,VALID,0.0,VALID,80.921,VALID,338.995,VALID,24.079,INVALID,360.0,VALID,0.0,
2019-03-09, 08:50:06,VALID,919.585,VALID,0.0,VALID,81.3,VALID,369.527,VALID,24.16,INVALID,360.0,VALID,0.0,
2019-03-09, 08:51:06,VALID,919.622,VALID,0.0,VALID,81.144,VALID,387.195,VALID,24.262,INVALID,360.0,VALID,0.0,
2019-03-09, 08:52:06,VALID,919.648,VALID,0.0,VALID,80.687,VALID,413.07,VALID,24.333,INVALID,360.0,VALID,0.0,
2019-03-09, 08:53:06,VALID,919.675,VALID,0.0,VALID,80.393,VALID,443.149,VALID,24.401,INVALID,360.0,VALID,0.0,
2019-03-09, 08:54:06,VALID,919.7,VALID,0.0,VALID,80.19,VALID,487.817,VALID,24.604,INVALID,360.0,VALID,0.0,
2019-03-09, 08:55:06,VALID,919.714,VALID,0.0,VALID,78.034,VALID,509.577,VALID,24.768,INVALID,360.0,VALID,0.0,
2019-03-09, 08:56:06,VALID,919.714,VALID,0.0,VALID,78.154,VALID,514.18,VALID,24.832,INVALID,360.0,VALID,0.0,
2019-03-09, 08:57:06,VALID,919.737,VALID,0.0,VALID,77.967,VALID,516.343,VALID,24.848,INVALID,360.0,VALID,0.0,
2019-03-09, 08:58:06,VALID,919.72,VALID,0.0,VALID,78.652,VALID,500.723,VALID,24.843,INVALID,360.0,VALID,0.0,
2019-03-09, 08:59:06,VALID,919.719,VALID,0.0,VALID,80.54,VALID,486.477,VALID,24.968,INVALID,360.0,VALID,0.0,
2019-03-09, 09:00:06,VALID,919.719,VALID,0.0,VALID,78.472,VALID,473.761,VALID,25.114,INVALID,360.0,VALID,0.0,
2019-03-09, 09:01:06,VALID,919.714,VALID,0.0,VALID,76.802,VALID,476.201,VALID,25.108,INVALID,360.0,VALID,0.0,
2019-03-09, 09:02:06,VALID,919.7,VALID,0.0,VALID,78.044,VALID,442.561,VALID,25.062,INVALID,360.0,VALID,0.0,
2019-03-09, 09:03:06,VALID,919.684,VALID,0.0,VALID,78.758,VALID,377.03,VALID,25.019,INVALID,360.0,VALID,0.0,
2019-03-09, 09:04:06,VALID,919.707,VALID,0.0,VALID,77.761,VALID,324.11,VALID,25.044,INVALID,360.0,VALID,0.0,
2019-03-09, 09:05:06,VALID,919.688,VALID,0.0,VALID,77.247,VALID,302.563,VALID,24.985,INVALID,360.0,VALID,0.0,
2019-03-09, 09:06:06,VALID,919.729,VALID,0.0,VALID,78.16,VALID,314.736,VALID,24.78,INVALID,360.0,VALID,0.0,
2019-03-09, 09:07:06,VALID,919.758,VALID,0.0,VALID,78.859,VALID,306.404,VALID,24.733,INVALID,360.0,VALID,0.0,
2019-03-09, 09:08:06,VALID,919.783,VALID,0.0,VALID,78.518,VALID,272.868,VALID,24.866,INVALID,360.0,VALID,0.0,
2019-03-09, 09:09:06,VALID,919.813,VALID,0.0,VALID,78.07,VALID,338.001,VALID,24.744,INVALID,360.0,VALID,0.0,
2019-03-09, 09:10:06,VALID,919.824,VALID,0.0,VALID,77.573,VALID,416.985,VALID,24.483,INVALID,360.0,VALID,0.0,
2019-03-09, 09:11:06,VALID,919.821,VALID,0.0,VALID,78.206,VALID,507.028,VALID,24.358,INVALID,360.0,VALID,0.0,
2019-03-09, 09:12:06,VALID,919.807,VALID,0.0,VALID,79.329,VALID,538.136,VALID,24.572,INVALID,360.0,VALID,0.0,
2019-03-09, 09:13:06,VALID,919.827,VALID,0.0,VALID,77.941,VALID,551.265,VALID,24.966,INVALID,360.0,VALID,0.0,
2019-03-09, 09:14:06,VALID,919.818,VALID,0.0,VALID,75.033,VALID,557.862,VALID,25.099,INVALID,360.0,VALID,0.0,
2019-03-09, 09:15:06,VALID,919.827,VALID,0.0,VALID,75.666,VALID,570.213,VALID,25.212,INVALID,360.0,VALID,0.0,
2019-03-09, 09:16:06,VALID,919.805,VALID,0.0,VALID,75.978,VALID,568.545,VALID,25.339,INVALID,360.0,VALID,0.0,
2019-03-09, 09:17:06,VALID,919.792,VALID,0.0,VALID,76.276,VALID,559.791,VALID,25.551,INVALID,360.0,VALID,0.0,
2019-03-09, 09:18:06,VALID,919.778,VALID,0.0,VALID,74.737,VALID,559.65,VALID,25.712,INVALID,360.0,VALID,0.0,
2019-03-09, 09:19:06,VALID,919.787,VALID,0.0,VALID,73.225,VALID,570.606,VALID,25.919,INVALID,360.0,VALID,0.0,
2019-03-09, 09:20:06,VALID,919.785,VALID,0.0,VALID,72.732,VALID,568.821,VALID,25.972,INVALID,360.0,VALID,0.0,
2019-03-09, 09:21:06,VALID,919.796,VALID,0.0,VALID,73.227,VALID,570.871,VALID,25.938,INVALID,360.0,VALID,0.0,
2019-03-09, 09:22:06,VALID,919.803,VALID,0.0,VALID,74.353,VALID,576.824,VALID,25.896,INVALID,360.0,VALID,0.0,
2019-03-09, 09:23:06,VALID,919.808,VALID,0.0,VALID,74.065,VALID,580.546,VALID,26.052,INVALID,360.0,VALID,0.0,
2019-03-09, 09:24:06,VALID,919.813,VALID,0.0,VALID,72.252,VALID,585.064,VALID,25.952,INVALID,360.0,VALID,0.0,
2019-03-09, 09:25:06,VALID,919.794,VALID,0.0,VALID,73.607,VALID,587.631,VALID,25.692,INVALID,360.0,VALID,0.0,
2019-03-09, 09:26:06,VALID,919.796,VALID,0.0,VALID,74.512,VALID,588.988,VALID,25.823,INVALID,360.0,VALID,0.0,
2019-03-09, 09:27:06,VALID,919.798,VALID,0.0,VALID,73.577,VALID,584.503,VALID,26.148,INVALID,360.0,VALID,0.0,
2019-03-09, 09:28:06,VALID,919.789,VALID,0.0,VALID,71.764,VALID,594.91,VALID,26.358,INVALID,360.0,VALID,0.0,
2019-03-09, 09:29:06,VALID,919.831,VALID,0.0,VALID,72.487,VALID,601.084,VALID,26.328,INVALID,360.0,VALID,0.0,
2019-03-09, 09:30:06,VALID,919.822,VALID,0.0,VALID,73.145,VALID,598.228,VALID,26.252,INVALID,360.0,VALID,0.0,
2019-03-09, 09:31:06,VALID,919.832,VALID,0.0,VALID,72.77,VALID,593.683,VALID,26.087,INVALID,360.0,VALID,0.0,
2019-03-09, 09:32:06,VALID,919.852,VALID,0.0,VALID,72.784,VALID,610.141,VALID,25.871,INVALID,360.0,VALID,0.0,
2019-03-09, 09:33:06,VALID,919.839,VALID,0.0,VALID,72.254,VALID,603.755,VALID,25.965,INVALID,360.0,VALID,0.0,
2019-03-09, 09:34:06,VALID,919.859,VALID,0.0,VALID,72.698,VALID,603.552,VALID,26.238,INVALID,360.0,VALID,0.0,
2019-03-09, 09:35:06,VALID,919.865,VALID,0.0,VALID,71.863,VALID,617.51,VALID,26.306,INVALID,360.0,VALID,0.0,
2019-03-09, 09:36:06,VALID,919.882,VALID,0.0,VALID,70.12,VALID,613.727,VALID,26.387,INVALID,360.0,VALID,0.0,
2019-03-09, 09:37:06,VALID,919.893,VALID,0.0,VALID,69.308,VALID,627.853,VALID,26.095,INVALID,360.0,VALID,0.0,
2019-03-09, 09:38:06,VALID,919.88,VALID,0.0,VALID,72.068,VALID,640.577,VALID,25.996,INVALID,360.0,VALID,0.0,
2019-03-09, 09:39:06,VALID,919.88,VALID,0.0,VALID,71.421,VALID,597.067,VALID,26.217,INVALID,360.0,VALID,0.0,
2019-03-09, 09:40:06,VALID,919.885,VALID,0.0,VALID,70.584,VALID,653.048,VALID,26.456,INVALID,360.0,VALID,0.0,
2019-03-09, 09:41:06,VALID,919.866,VALID,0.0,VALID,68.609,VALID,656.502,VALID,26.417,INVALID,360.0,VALID,0.0,
2019-03-09, 09:42:06,VALID,919.858,VALID,0.0,VALID,69.202,VALID,615.969,VALID,26.199,INVALID,360.0,VALID,0.0,
2019-03-09, 09:43:06,VALID,919.836,VALID,0.0,VALID,71.061,VALID,462.61,VALID,26.081,INVALID,360.0,VALID,0.0,
2019-03-09, 09:44:06,VALID,919.816,VALID,0.0,VALID,70.89,VALID,641.246,VALID,26.246,VALID,32.0,VALID,0.0,
2019-03-09, 09:45:06,VALID,919.799,VALID,0.0,VALID,70.69,VALID,638.883,VALID,26.505,INVALID,360.0,VALID,0.0,
2019-03-09, 09:46:06,VALID,919.802,VALID,0.0,VALID,69.608,VALID,644.95,VALID,26.713,INVALID,360.0,VALID,0.0,
2019-03-09, 09:47:06,VALID,919.812,VALID,0.0,VALID,69.134,VALID,631.98,VALID,26.581,INVALID,360.0,VALID,0.0,
2019-03-09, 09:48:06,VALID,919.798,VALID,0.0,VALID,69.688,VALID,657.665,VALID,26.514,INVALID,360.0,VALID,0.0,
2019-03-09, 09:49:06,VALID,919.802,VALID,0.0,VALID,67.954,VALID,652.904,VALID,26.676,INVALID,360.0,VALID,0.0,
2019-03-09, 09:50:06,VALID,919.775,VALID,0.0,VALID,68.318,VALID,332.107,VALID,26.679,INVALID,360.0,VALID,0.0,
2019-03-09, 09:51:06,VALID,919.777,VALID,0.0,VALID,70.407,VALID,231.688,VALID,26.73,INVALID,360.0,VALID,0.0,
2019-03-09, 09:52:06,VALID,919.752,VALID,0.0,VALID,69.894,VALID,318.052,VALID,26.654,INVALID,360.0,VALID,0.0,
2019-03-09, 09:53:06,VALID,919.733,VALID,0.0,VALID,69.08,VALID,699.767,VALID,26.619,INVALID,360.0,VALID,0.0,
2019-03-09, 09:54:06,VALID,919.725,VALID,0.0,VALID,70.801,VALID,703.352,VALID,26.758,INVALID,360.0,VALID,0.0,
2019-03-09, 09:55:06,VALID,919.714,VALID,0.0,VALID,68.353,VALID,688.368,VALID,27.038,INVALID,360.0,VALID,0.0,
2019-03-09, 09:56:06,VALID,919.694,VALID,0.0,VALID,66.74,VALID,690.762,VALID,27.16,INVALID,360.0,VALID,0.0,
2019-03-09, 09:57:06,VALID,919.689,VALID,0.0,VALID,66.143,VALID,691.698,VALID,27.134,INVALID,360.0,VALID,0.0,
2019-03-09, 09:58:06,VALID,919.674,VALID,0.0,VALID,67.467,VALID,704.748,VALID,27.005,INVALID,360.0,VALID,0.0,
2019-03-09, 09:59:06,VALID,919.67,VALID,0.0,VALID,69.08,VALID,711.215,VALID,27.126,INVALID,360.0,VALID,0.0,
2019-03-09, 10:00:06,VALID,919.657,VALID,0.0,VALID,66.376,VALID,721.109,VALID,26.973,INVALID,360.0,VALID,0.0,
2019-03-09, 10:01:06,VALID,919.659,VALID,0.0,VALID,67.407,VALID,721.056,VALID,26.82,INVALID,360.0,VALID,0.0,
2019-03-09, 10:02:06,VALID,919.647,VALID,0.0,VALID,67.707,VALID,715.404,VALID,26.874,INVALID,360.0,VALID,0.0,
2019-03-09, 10:03:06,VALID,919.666,VALID,0.0,VALID,68.429,VALID,715.169,VALID,27.046,INVALID,360.0,VALID,0.0,
2019-03-09, 10:04:06,VALID,919.666,VALID,0.0,VALID,68.088,VALID,717.56,VALID,27.039,INVALID,360.0,VALID,0.0,
2019-03-09, 10:05:06,VALID,919.66,VALID,0.0,VALID,68.191,VALID,751.584,VALID,27.214,INVALID,360.0,VALID,0.0,
2019-03-09, 10:06:06,VALID,919.662,VALID,0.0,VALID,66.309,VALID,770.82,VALID,27.392,INVALID,360.0,VALID,0.0,
2019-03-09, 10:07:06,VALID,919.645,VALID,0.0,VALID,65.618,VALID,757.132,VALID,27.243,INVALID,360.0,VALID,0.0,
2019-03-09, 10:08:06,VALID,919.634,VALID,0.0,VALID,66.519,VALID,757.473,VALID,26.971,INVALID,360.0,VALID,0.0,
2019-03-09, 10:09:06,VALID,919.634,VALID,0.0,VALID,66.645,VALID,772.648,VALID,27.085,VALID,147.0,VALID,0.0,
2019-03-09, 10:10:06,VALID,919.64,VALID,0.0,VALID,67.624,VALID,775.067,VALID,27.264,VALID,82.0,VALID,0.0,
2019-03-09, 10:11:06,VALID,919.634,VALID,0.0,VALID,68.303,VALID,779.811,VALID,26.982,VALID,66.0,VALID,0.0,
2019-03-09, 10:12:06,VALID,919.635,VALID,0.0,VALID,72.04,VALID,782.181,VALID,26.841,VALID,57.0,VALID,0.0,
2019-03-09, 10:13:06,VALID,919.676,VALID,0.0,VALID,69.409,VALID,781.637,VALID,26.942,VALID,108.0,VALID,0.0,
2019-03-09, 10:14:06,VALID,919.688,VALID,0.0,VALID,66.637,VALID,781.007,VALID,26.962,VALID,129.0,VALID,0.0,
2019-03-09, 10:15:06,VALID,919.667,VALID,0.0,VALID,66.705,VALID,792.621,VALID,27.083,VALID,124.0,VALID,0.0,
2019-03-09, 10:16:06,VALID,919.705,VALID,0.0,VALID,68.45,VALID,794.958,VALID,27.35,VALID,103.0,VALID,0.0,
2019-03-09, 10:17:06,VALID,919.694,VALID,0.0,VALID,65.441,VALID,781.611,VALID,27.03,VALID,134.0,VALID,0.0,
2019-03-09, 10:18:06,VALID,919.686,VALID,0.0,VALID,67.726,VALID,777.488,VALID,26.908,VALID,116.0,VALID,0.0,
2019-03-09, 10:19:06,VALID,919.674,VALID,0.0,VALID,68.315,VALID,789.497,VALID,26.964,VALID,88.0,VALID,0.0,
2019-03-09, 10:20:06,VALID,919.677,VALID,0.0,VALID,70.278,VALID,748.576,VALID,26.853,VALID,72.0,VALID,0.0,
2019-03-09, 10:21:06,VALID,919.66,VALID,0.0,VALID,68.885,VALID,677.458,VALID,26.864,VALID,84.0,VALID,0.0,
2019-03-09, 10:22:06,VALID,919.651,VALID,0.0,VALID,69.57,VALID,370.424,VALID,26.826,VALID,77.0,VALID,0.0,
2019-03-09, 10:23:06,VALID,919.642,VALID,0.0,VALID,69.552,VALID,229.34,VALID,26.745,VALID,84.0,VALID,0.0,
2019-03-09, 10:24:06,VALID,919.648,VALID,0.0,VALID,71.141,VALID,225.769,VALID,26.705,VALID,74.0,VALID,0.0,
2019-03-09, 10:25:06,VALID,919.636,VALID,0.0,VALID,68.14,VALID,265.8,VALID,26.491,VALID,103.0,VALID,1.053,
2019-03-09, 10:26:06,VALID,919.637,VALID,0.0,VALID,66.475,VALID,334.842,VALID,26.289,VALID,106.0,VALID,1.346,
2019-03-09, 10:27:06,VALID,919.628,VALID,0.0,VALID,67.523,VALID,728.75,VALID,26.226,VALID,101.0,VALID,1.839,
2019-03-09, 10:28:06,VALID,919.615,VALID,0.0,VALID,69.686,VALID,787.702,VALID,26.186,VALID,76.0,VALID,1.675,
2019-03-09, 10:29:06,VALID,919.608,VALID,0.0,VALID,70.771,VALID,809.058,VALID,26.329,VALID,101.0,VALID,1.613,
2019-03-09, 10:30:06,VALID,919.598,VALID,0.0,VALID,67.543,VALID,808.164,VALID,26.581,VALID,101.0,VALID,1.132,
2019-03-09, 10:31:06,VALID,919.577,VALID,0.0,VALID,67.317,VALID,823.013,VALID,26.783,VALID,75.0,VALID,0.407,
2019-03-09, 10:32:06,VALID,919.555,VALID,0.0,VALID,66.958,VALID,845.503,VALID,26.962,VALID,124.0,VALID,0.947,
2019-03-09, 10:33:06,VALID,919.533,VALID,0.0,VALID,67.334,VALID,869.495,VALID,27.258,VALID,100.0,VALID,1.543,
2019-03-09, 10:34:06,VALID,919.505,VALID,0.0,VALID,66.879,VALID,878.731,VALID,27.35,VALID,77.0,VALID,1.768,
2019-03-09, 10:35:06,VALID,919.503,VALID,0.0,VALID,68.119,VALID,885.607,VALID,27.464,VALID,69.0,VALID,1.149,
2019-03-09, 10:36:06,VALID,919.492,VALID,0.0,VALID,63.381,VALID,870.132,VALID,27.46,VALID,68.0,VALID,1.026,